Location: Bois de Villers
(50.3278°N, 4.2530°E)
Time: 09:39:52
(UTC+00:00)

Daily predictions for brighter satellites

Satellite Brightness Start Highest point End
(mag) Time Altitude Azimuth Time Altitude Azimuth Time Altitude Azimuth
NOSS 3-3 (A) 3.9 17:21:39 10° SSW 17:26:39 53° ESE 17:32:39 10° NE
CARTOSAT-1 4.4 17:25:36 10° ESE 17:29:09 27° ENE 17:32:42 10° N
Cosmos 1802 Rocket 4.4 17:27:31 10° NNW 17:33:55 77° W 17:40:20 10° S
Cosmos 2285 Rocket 4.1 17:29:56 10° NNW 17:36:21 62° ENE 17:42:40 10° SE
Cosmos 2233 Rocket 4.0 17:30:33 10° N 17:36:51 76° E 17:43:09 10° SSE
CZ-4 R/B 4.3 17:33:42 10° SSE 17:37:38 71° ENE 17:41:37 10° N
USA 290 2.6 17:34:42 10° SSW 17:37:52 66° WNW 17:41:03 10° NNE
NOSS 0 Rocket 4.0 17:32:39 10° NNW 17:38:57 89° ENE 17:45:12 10° SSE
USA 306 4.1 17:38:00 10° W 17:40:27 22° SW 17:42:17 10° S
ARIANE 6 FM1 Upper Stage 4.0 17:38:54 10° NNW 17:42:03 22° NNE 17:45:04 11° ENE
NOSS 3-4 (A) 3.9 17:38:20 10° NW 17:44:46 61° NE 17:52:22 10° ESE
NOSS 3-4 (C) 3.9 17:38:36 10° NW 17:45:03 60° NE 17:52:40 10° ESE
Cosmos 1725 Rocket 4.5 17:39:22 10° NNW 17:45:35 69° W 17:51:48 10° S
Cosmos 2151 Rocket 3.8 17:44:51 10° NNW 17:49:22 78° W 17:53:51 10° S
Meteor 1-11 4.3 17:46:39 10° S 17:52:18 90° W 17:58:05 10° NNE
Radarsat Rocket 4.0 17:49:32 10° SSE 17:55:21 67° ENE 18:01:43 10° NNW
Cosmos 1607 4.0 17:49:37 10° SW 17:55:46 82° NW 18:02:01 10° NE
Cosmos 1455 Rocket 3.3 17:52:52 10° N 17:57:01 44° ENE 18:01:07 10° SSE
Cosmos 44 Rocket 4.2 17:55:13 10° S 17:59:26 29° ESE 18:03:10 13° ENE
YAOGAN 1 2.5 17:55:29 10° SSE 17:59:44 82° ENE 18:04:01 10° NNW
Cosmos 2228 3.8 17:56:13 10° N 17:59:51 28° ENE 18:03:30 10° SE
Cosmos 1975 Rocket 4.1 17:56:39 10° SE 18:00:04 23° E 18:03:29 10° NE
COSMO-SKYMED 1 2.7 17:56:23 10° NNE 18:00:23 46° E 18:04:20 10° S
PSLV R/B 3.5 17:56:32 10° SSE 18:00:32 53° ENE 18:04:33 10° N
ATLAS 2AS CENTAUR R/B 4.0 17:55:10 10° W 18:01:13 31° NNW 18:07:12 10° NE
Cosmos 1782 3.9 17:58:57 10° NNE 18:01:40 20° ENE 18:03:12 15° E
Cosmos 2297 Rocket 2.4 17:56:42 10° S 18:02:10 53° ESE 18:07:41 10° NE
Lacrosse 5 rocket 2.0 18:00:17 10° W 18:03:34 37° NNW 18:06:24 13° NE
DNEPR-1 R/B 4.2 18:00:05 10° NW 18:04:42 51° NE 18:10:09 10° ESE
SPOT 1/Viking Rocket 4.3 18:01:44 10° S 18:06:46 58° W 18:11:51 10° NNW
Cosmos 2061 Rocket 4.2 18:00:53 10° NNW 18:07:17 78° W 18:13:34 10° S
Aureole 3 Rocket 2.4 18:03:28 10° N 18:07:31 75° E 18:10:44 10° SSE
CZ-2D R/B 3.3 18:05:38 10° SSE 18:09:33 89° ENE 18:13:36 10° NNW
Okean 1 Rocket 3.4 18:07:59 10° NNW 18:12:22 69° W 18:16:42 10° S
SL-16 R/B 4.3 18:07:10 10° N 18:12:28 31° WNW 18:17:48 10° WSW
CZ-4C R/B 2.1 18:09:04 10° SW 18:13:25 69° NW 18:19:04 10° NE
Cosmos 1464 Rocket 4.2 18:10:38 10° N 18:16:48 49° ENE 18:22:53 10° SSE
Okean 2 Rocket 4.0 18:13:19 10° NNW 18:17:36 52° W 18:21:50 10° S
Cosmos 2344 4.3 18:13:13 10° S 18:19:43 28° ESE 18:23:44 17° ENE
Cosmos 2221 Rocket 3.7 18:15:46 10° SSW 18:20:14 80° W 18:24:47 10° N
USA 267 3.4 18:15:08 13° ENE 18:21:06 72° NNW 18:27:36 10° WSW
ERS-1 Rocket 4.5 18:22:17 17° ENE 18:22:24 17° NE 18:25:32 10° NNE
SJ-6B 2.7 18:21:09 10° SE 18:24:26 44° ENE 18:27:44 10° N
Cosmos 1980 4.1 18:24:31 10° NW 18:30:08 64° WSW 18:35:42 10° SSE
Cosmos 2263 Rocket 3.1 18:26:14 10° SSE 18:30:46 25° ESE 18:31:44 24° E
Cosmos 1025 Rocket 4.0 18:26:41 10° SSW 18:30:52 49° WNW 18:35:07 10° N
Cosmos 2237 Rocket 2.7 18:29:47 10° NW 18:35:25 64° WSW 18:41:01 10° SSE
Meteor 1-31 Rocket 3.6 18:36:37 27° NE 18:36:37 27° NE 18:38:57 10° N
Meteor 1-27 4.3 18:32:04 10° NNW 18:37:52 85° W 18:43:42 10° S
ADEOS 4.5 18:43:01 27° ENE 18:43:16 27° ENE 18:47:34 10° N
Cosmos 1570 Rocket 3.9 18:38:11 10° SSW 18:43:28 87° ESE 18:48:45 10° NNE
Resurs 01 Rocket 1.7 18:39:23 10° S 18:43:46 78° WSW 18:48:13 10° NNW
SPOT 5 3.2 18:45:52 27° ESE 18:48:07 46° ENE 18:53:00 10° N
NOSS 3-3 (C) 4.2 18:45:01 10° WSW 18:50:21 61° NW 18:55:59 14° NE
DMSP B5D1-3 4.4 18:47:38 10° NNE 18:52:46 86° ESE 18:57:53 10° SSW
Tiangong 0.2 18:54:05 10° SSW 18:55:41 15° S 18:55:41 15° S
SL-16 R/B 2.1 18:55:45 10° NNW 19:01:24 69° ENE 19:03:59 33° SE
Cosmos 2227 Rocket 2.1 18:55:51 10° SSW 19:01:26 66° ESE 19:05:16 21° NE
Cosmos 773 Rocket 4.0 18:59:05 10° SSW 19:04:22 82° WNW 19:09:42 10° NNE
Cosmos 1346 Rocket 3.7 19:00:51 10° S 19:02:49 30° S 19:02:49 30° S
Cosmos 2208 Rocket 4.0 18:59:20 10° SSW 19:04:35 87° WNW 19:09:57 10° NNE
Tsikada Rocket 4.2 19:02:30 10° SSE 19:08:15 44° E 19:14:03 10° NNE
CZ-4 R/B 2.6 19:17:56 28° N 19:17:56 28° N 19:19:52 10° N
Okean O Rocket 3.9 19:20:31 12° NNE 19:20:31 12° NNE 19:20:59 10° N
ARIANE 6 FM1 Upper Stage 2.8 19:17:39 10° NW 19:21:05 63° NNW 19:21:05 63° NNW
CZ-4B R/B 3.3 19:26:08 50° NE 19:26:08 50° NE 19:30:48 10° N
Terra 3.1 19:30:49 27° NNE 19:30:49 27° NNE 19:33:12 10° N
Cosmos 1544 Rocket 3.6 19:25:19 10° NNW 19:29:40 75° W 19:30:02 69° SW
CZ-4B DEB 4.0 19:29:06 54° SSE 19:30:23 79° ENE 19:35:52 10° NNW
CSL-04 Debris 4.1 19:30:41 34° S 19:33:11 83° WSW 19:38:40 10° NNW
Cosmos 2034 Rocket 4.1 19:28:30 10° NNW 19:34:40 74° W 19:40:50 10° S
Cosmos 1782 4.1 19:33:13 10° NNW 19:36:30 34° W 19:37:19 30° WSW
Cosmos 1975 Rocket 4.3 19:33:27 10° SW 19:37:33 41° WNW 19:41:40 10° N
TSX-5 4.2 19:32:18 10° NW 19:37:23 80° W 19:37:23 80° W
CSL-04 Rocket 3.7 19:35:11 30° S 19:37:51 71° WSW 19:43:09 10° NNW
RESURS DK-1 4.3 19:34:11 10° NNW 19:35:40 20° N 19:35:40 20° N
Cosmos 44 Rocket 3.9 19:35:41 10° WSW 19:40:34 57° NW 19:41:48 44° N
Lacrosse 5 rocket 3.1 19:37:55 10° WNW 19:39:50 22° NNW 19:39:50 22° NNW
MOS 1 4.1 19:41:22 73° ENE 19:41:23 73° ENE 19:47:04 10° NNW
Cosmos 1634 Rocket 3.8 19:35:45 10° N 19:42:07 76° E 19:43:02 64° SE
Cosmos 2297 Rocket 3.7 19:41:19 10° WSW 19:46:27 34° NW 19:51:37 10° NNE
Cosmos 1943 3.4 19:43:39 10° NNW 19:48:32 57° NNE 19:48:32 57° NNE
ATLAS 2AS CENTAUR R/B 3.9 19:48:22 10° NW 19:54:07 28° N 19:55:21 26° NNE
BREEZE-M DEB (TANK) 3.8 19:39:14 10° W 19:55:49 66° S 19:56:30 62° SSE
ERS-1 Rocket 3.8 20:02:09 43° NNW 20:02:09 43° NNW 20:05:28 10° NNW
CZ-4C R/B 3.8 19:58:27 10° WNW 20:02:43 27° NNW 20:04:22 24° NNE
BREEZE-M DEB (TANK) 4.3 19:58:14 10° SW 20:03:13 63° SE 20:04:47 56° ESE
USA 267 3.7 20:02:29 45° NNE 20:03:43 50° N 20:09:59 10° WNW
Cosmos 972 Rocket 4.5 19:58:49 10° NNW 20:02:46 56° NW 20:02:46 56° NW
Cosmos 2279 Rocket 4.2 19:58:18 10° N 20:03:21 59° NNE 20:03:21 59° NNE
Cosmos 2263 Rocket 2.6 20:08:34 10° SW 20:13:31 59° W 20:13:31 59° W
Cosmos 2344 3.5 20:25:46 10° SW 20:33:21 72° NW 20:33:47 70° NNW
SL-16 R/B 4.1 20:40:38 10° NW 20:44:59 23° WSW 20:45:52 22° WSW
Cosmos 2227 Rocket 3.9 20:41:02 10° WSW 20:45:55 29° NW 20:47:09 27° NNW
ATLAS 2AS CENTAUR R/B 4.4 21:39:55 10° NW 21:42:45 25° NNW 21:42:45 25° NNW
